Location: Zagreb
(45.8000°N, 16.0000°E)
Time: 01:00:19
(UTC+02:00)

Transit 2A Rocket - Pass Details

Date: 26 January 2022
Orbit: 592 x 909 km, 66.7° (Epoch: 26 May)

Event Time Altitude Azimuth Distance (km) Brightness Sun altitude
Rises 23:50:12 0° 324° (NW) 3,519 - -62.5°
Reaches altitude 10° 23:55:34 10° 4° (N) 2,518 - -62.6°
Maximum altitude 23:56:35 10° 14° (NNE) 2,473 - -62.6°
Drops below altitude 10° 23:57:35 10° 24° (NNE) 2,488 - -62.6°
Sets 00:02:41 0° 64° (ENE) 3,329 - -62.7°
